Regional Weather Roundup
Issued by NWS Cleveland, OH

Home | Current Version | Previous Version | Graphics & Text | Print | Product List | Glossary On
Versions: 1 2 3 4 5 6 7 8 9 10 11 12 13 14 15 16 17 18 19 20 21 22 23 24 25 26 27 28 29 30 31 32 33 34 35 36 37 38 39 40 41 42 43 44 45 46 47 48 49 50
000
ASUS41 KCLE 030302
RWRCLE
OHIO REGIONAL WEATHER ROUNDUP
NATIONAL WEATHER SERVICE CLEVELAND, OH
1100 PM EDT TUE SEP 02 2014

NOTE: "FAIR" INDICATES FEW OR NO CLOUDS BELOW 12,000 FEET WITH NO
SIGNIFICANT WEATHER AND/OR OBSTRUCTIONS TO VISIBILITY.

OHZ001>008-015>018-024>027-034-035-043-044-030400-
   NORTHWEST OHIO

CITY           SKY/WX    TMP DP  RH WIND       PRES   REMARKS
DEFIANCE       PTCLDY    66  62  87 CALM      29.97R
FINDLAY        PTCLDY    67  65  93 SW3       29.96R
TOLEDO EXPRESS PTCLDY    65  63  93 CALM      29.95R
TOLEDO EXEC    PTCLDY    68  64  87 CALM      29.96R
LIMA           CLEAR     69  66  90 SW3       29.98R
$$

OHZ009>014-019>023-028>033-038-089-030400-
   NORTHEAST OHIO

CITY           SKY/WX    TMP DP  RH WIND       PRES   REMARKS
CLE-HOPKINS    PTCLDY    64  62  93 SW3       29.98R
CLE-LAKEFRONT  PTCLDY    68  61  78 S3        29.95R
CUY CO. ARPT   MOCLDY    66  64  94 SW7       29.97
LORAIN-ELYRIA  PTCLDY    67  63  87 SW5       29.97R
ASHTABULA      PTCLDY    65  64  97 CALM      29.96R FOG
AKRON-CANTON   PTCLDY    67  63  87 W7        29.98R
WOOSTER        CLEAR     63  61  93 W5        30.00R
MANSFIELD      CLEAR     64  63  96 S5        30.00R
YOUNGSTOWN     PTCLDY    64  63  96 CALM      29.98R
$$

OHZ042-051>053-060>062-070>072-077>081-030400-
  SOUTHWEST OHIO

CITY           SKY/WX    TMP DP  RH WIND       PRES   REMARKS
CINC-COVINGTON MOCLDY    68  66  93 CALM      30.00R
CINC-LUNKEN    FOG       68  68 100 S3        30.00R VSB 1/4
HAMILTON       CLEAR     67  66  97 CALM      30.00R
DAYTON         PTCLDY    69  66  90 SW5       30.00R
WRIGHT-PAT AFB CLEAR     69  69 100 CALM      29.99R
DAYTON GENERAL CLEAR     70  68  93 CALM      29.99R
WILMINGTON     CLEAR     64  63  96 SE3       30.00R
$$

OHZ036-037-039>041-045>050-054>059-063>069-073>076-082>088-030400-
  CENTRAL AND SOUTHEAST OHIO

CITY           SKY/WX    TMP DP  RH WIND       PRES   REMARKS
COLUMBUS       PTCLDY    74  66  76 CALM      29.99R
OSU AIRPORT    CLEAR     69  67  93 CALM      29.99R
BOLTON FIELD   MOCLDY    65  65 100 CALM      30.00R
RICKENBACK AFB CLEAR     68  63  84 CALM      29.99R
NEWARK         CLEAR     64  63  96 CALM      29.99R
MARION         PTCLDY    67  64  90 S3        29.99R
LANCASTER      CLEAR     66  64  93 CALM      30.00R
ZANESVILLE     CLEAR     67  64  90 CALM      29.99R
NEW PHILLY     CLEAR     67  65  93 CALM      29.99R
$$


USA.gov is the U.S. government's official web portal to all federal, state and local government web resources and services.